Flag for Canada Weather past 2 weeks in Corner Brook, Newfoundland and Labrador, Canada

Now
23 °F

Low clouds.


Feels Like: 11 °F
Forecast: 14 / 34 °F
Wind: 14 mph from Northeast

Location: Deer Lake

Current Time: Jan 31, 2015 at 12:11:53 PM

Latest Report: Jan 31, 2015 at 11:30 AM


Visibility: 15 mi

Pressure: 29.89 "Hg

Humidity: 93%

Dew point: 21 °F

Location of Corner BrookLocation

Historic Weather in Corner Brook — Graph

°F

Corner Brook temperature yesterday

Maximum temperature yesterday: 23 °F (at 11:30 AM)
Minimum temperature yesterday: 12 °F (at 12:30 AM)
Average temperature yesterday: 19 °F

Past Weeks' High & Low Weather Summary

 TemperatureHumidityPressure
High46 °F (Jan 25, 9:30 AM)100% (Jan 17, 7:30 AM)30.53 "Hg (Jan 17, 7:30 AM)
Low0 °F (Jan 27, 6:30 AM)63% (Jan 18, 4:30 PM)28.35 "Hg (Jan 25, 10:30 AM)
Average22 °F83%29.81 "Hg
* Reported Jan 16 10:30 AM — Jan 31 10:30 AM, Corner Brook, Weather by CustomWeather, © 2014

Note: Actual official high and low records may vary slightly from our data, if they occured in-between our weather recording intervals... More about our weather records

Advertising

Corner Brook weather history for previous 24 hours

 ConditionsComfort  
Time TempWeatherWind HumidityBarometerVisibility
10:30 AM
Jan 31
23 °FLow clouds.12 mph93%29.91 "Hg10 mi
9:30 AM23 °FLow clouds.7 mph93%29.94 "Hg15 mi
8:30 AM21 °FLow clouds.6 mph93%29.91 "Hg15 mi
7:30 AM23 °FLow clouds.8 mph93%29.89 "Hg15 mi
6:30 AM23 °FLow clouds.3 mph93%29.91 "Hg15 mi
5:30 AM23 °FOvercast.2 mph93%29.90 "Hg15 mi
4:30 AM25 °FOvercast.2 mph86%29.91 "Hg15 mi
3:30 AM25 °FOvercast.5 mph86%29.88 "Hg15 mi
2:30 AM25 °FOvercast.3 mph86%29.88 "Hg15 mi
1:30 AM25 °FPassing clouds.10 mph86%29.87 "Hg15 mi
12:30 AM23 °FPassing clouds.10 mph93%29.84 "Hg15 mi
11:30 PM
Jan 30
21 °FPassing clouds.5 mph93%29.83 "Hg15 mi
10:30 PM23 °FOvercast.7 mph93%29.85 "Hg15 mi
9:30 PM21 °FOvercast.6 mph93%29.84 "Hg15 mi
8:30 PM21 °FOvercast.3 mph93%29.83 "Hg15 mi
7:30 PM21 °FLight snow. Mostly cloudy.2 mph93%29.83 "Hg8 mi
6:30 PM21 °FLight snow. Overcast.2 mph93%29.84 "Hg6 mi
5:30 PM21 °FLight snow. Mostly cloudy.5 mph93%29.83 "Hg3 mi
4:30 PM23 °FLight snow. Mostly cloudy.8 mph93%29.84 "Hg3 mi
3:30 PM23 °FLight snow. More clouds than sun.8 mph93%29.86 "Hg3 mi
2:30 PM23 °FLight snow. More clouds than sun.7 mph93%29.88 "Hg3 mi
1:30 PM23 °FLight snow. Mostly cloudy.8 mph93%29.92 "Hg1 mi
12:30 PM23 °FLight snow. Cloudy.10 mph93%29.95 "Hg3 mi
Weather by CustomWeather, © 2014

See weather overviewHow to use our weather pages